Regional Weather Roundup
Issued by NWS Mt. Holly, NJ

Current Version | Previous Version | Text Only | Print | Product List | Glossary On
Versions: 1 2 3 4 5 6 7 8 9 10 11 12 13 14 15 16 17 18 19 20 21 22 23 24 25 26 27
000
ASUS41 KPHI 300815
RWRPHI

REGIONAL WEATHER ROUNDUP
NATIONAL WEATHER SERVICE MOUNT HOLLY NJ
400 AM EDT THU JUN 30 2022

NOTE:  "FAIR" INDICATES FEW OR NO CLOUDS BELOW 12,000 FEET WITH NO
SIGNIFICANT WEATHER AND/OR OBSTRUCTIONS TO VISIBILITY.

 * = STATION DOES NOT REPORT PRECIPITATION (E.G. RAIN, SNOW, ETC.)
        OR FOG.

NJZ015>026-300900-
SOUTHERN NEW JERSEY

CITY           SKY/WX    TMP DP  RH WIND       PRES   REMARKS
POMONA         CLEAR     69  62  78 SW5       30.20S
WILDWOOD*      CLEAR     69  64  84 W6        30.21S
MILLVILLE      CLEAR     63  60  90 CALM      30.20F
WRIGHTSTOWN    CLEAR     65  62  89 SW5       30.18S
MOUNT HOLLY    CLEAR     69  62  78 VRB3      30.19S
TRENTON        CLEAR     67  63  87 W3        30.18S

$$
NJZ001>014-300900-
NORTHERN NEW JERSEY

CITY           SKY/WX    TMP DP  RH WIND       PRES   REMARKS
SUSSEX         CLEAR     57  56  96 CALM      30.21R
ANDOVER*         N/A     60  57  89 CALM      30.21R
MORRISTOWN     PTCLDY    57  57 100 CALM      30.18S
NEWARK         PTCLDY    72  62  71 W7        30.17S
TETERBORO      CLEAR     68  62  81 CALM      30.16S
CALDWELL       CLEAR     64  59  83 CALM      30.19R
SOMERVILLE     PTCLDY    59  58  96 CALM      30.17S
ALLAIRE*       CLEAR     66  65  96 SW5       30.19F

$$
PAZ043-044-047-054-055-060>062-066>071-300900-
EASTERN PENNSYLVANIA

CITY           SKY/WX    TMP DP  RH WIND       PRES   REMARKS
PHILADELPHIA   CLEAR     72  64  76 SW8       30.19F
NORTH PHILA    CLEAR     70  62  76 W6        30.20S
BLUE BELL*     CLEAR     61  60  99 CALM      30.20F
DOYLESTOWN     CLEAR     64  60  87 CALM      30.19S
QUAKERTOWN*    CLEAR     61  61 100 CALM      30.21S
PERKASIE*      FAIR      59  59 100 CALM      30.21F
POTTSTOWN      CLEAR     60  59  96 CALM      30.21F
LANCASTER      CLEAR     62  57  83 CALM      30.20F
COATESVILLE    CLEAR     66  64  94 SW6       30.22F
WEST CHESTER   FAIR      66  61  82 CALM      30.21S
READING        CLEAR     64  60  87 N3        30.19S
ALLENTOWN      PTCLDY    60  56  86 CALM      30.20S
QN CITY/ALNTWN FAIR      61  57  88 CALM      30.22S
MOUNT POCONO   CLEAR     54  53  97 CALM      30.25S
HAZLETON       CLEAR     54  54 100 CALM      30.27F FOG
LEHIGHTON      FAIR      54  52  94 CALM      30.22F
WILKES BARRE   MOCLDY    63  55  75 E5        30.22S

$$
DEZALL-MDZ008-012-015-019-020-300900-
DELAWARE AND EASTERN MARYLAND

CITY           SKY/WX    TMP DP  RH WIND       PRES   REMARKS
WILMINGTON     CLEAR     67  62  84 CALM      30.20F
DOVER          PTCLDY    68  65  90 SW6       30.19S
CHESWOLD       MOSUNNY   66  64  94 SW6       30.20F
GEORGETOWN     PTCLDY    67  62  84 SW5       30.21F
PATUXENT       PTCLDY    74  67  78 SW9       30.20F
OCEAN CITY     CLEAR     70  66  87 SW8       30.21F
WALLOPS ISLAND CLEAR     68  65  90 SW6       30.22F
CAMBRIDGE      PTCLDY    72  70  94 CALM      30.21S
SALISBURY      CLEAR     66  62  87 CALM      30.21F

$$
PAZ001-021-NYZ056-072-MDZ011-DCZ001-300900-
OTHER NEARBY LOCATIONS

CITY           SKY/WX    TMP DP  RH WIND       PRES   REMARKS
HARRISBURG     CLEAR     65  58  78 CALM      30.20S
STATE COLLEGE  PTCLDY    59  53  80 CALM      30.25S
WILLIAMSPORT   CLEAR     58  54  86 NW3       30.21S
BINGHAMTON     CLEAR     59  53  80 CALM      30.23F
NEW YORK CITY  CLEAR     72  59  63 W6        30.20S
BALTIMORE      CLEAR     71  65  81 SW3       30.19F
WASHINGTON DC  PTCLDY    74  67  78 S3        30.21S

$$



USA.gov is the U.S. government's official web portal to all federal, state and local government web resources and services.